STARLINK-2475

Last updated on Sat May 08 2021 00:02:04 GMT+0000 (Coordinated Universal Time)

1 48133U 21027AT 21127.58334491 .00055903 00000-0 40008-3 0 9998 2 48133 53.0471 191.7267 0002454 21.5675 290.3927 15.73194108 1771

Satellite not in orbit